Location: ?????????
(54.7630°N, 39.4991°E)
Time: 14:29:54
(UTC+00:00)

CZ-2C R/B - Pass Details

Date: 14 April 2026
Orbit: 342 x 356 km, 97.7° (Epoch: 17 May)

Event Time Altitude Azimuth Distance (km) Brightness Sun altitude
Exits shadow 17:03:09 - 87° (E) 1,738 4.8 -6.1°
Enters shadow 17:59:52 -70° 165° (SSE) 12,332 9.6 -13.0°
Maximum altitude 18:35:29 77° 74° (ENE) 389 1.9 -16.8°
